Home   Weather   Wegberg   Past weeks

Flag for Germany Past Weather in Wegberg, North Rhine-Westphalia, Germany — Yesterday and Last 2 Weeks

Now
52 °F

Clear.


Feels Like: 49 °F
Forecast: 39 / 64 °F
Wind: 7 mph from Northwest

Location: Monchengladbach Airport

Current Time: Apr 29, 2017 at 3:33:40 pm

Latest Report: Apr 29, 2017 at 2:20 pm


Visibility: 10 mi

Pressure: 30.07 "Hg

Humidity: 47%

Dew Point: 32 °F

Location of WegbergLocation

Past Weather in Wegberg — Graph

°F

Wegberg Temperature Yesterday

Maximum temperature yesterday: 52 °F (at 2:50 pm)
Minimum temperature yesterday: 39 °F (at 8:20 am)
Average temperature yesterday: 48 °F

High & Low Weather Summary for the Past Weeks

 TemperatureHumidityPressure
High59 °F (Apr 21, 2:50 pm)100% (Apr 17, 7:50 am)30.63 "Hg (Apr 17, 7:50 am)
Low30 °F (Apr 20, 7:50 am)30% (Apr 20, 6:20 pm)29.74 "Hg (Apr 25, 8:20 am)
Average49 °F57%30.15 "Hg
* Reported Apr 14 2:20 pm — Apr 29 2:20 pm, Wegberg, Weather by CustomWeather, © 2017

Note: Actual official high and low records may vary slightly from our data, if they occured in-between our weather recording intervals... More about our weather records

Advertising

Wegberg Weather History for the Previous 24 Hours

Scroll right to see more
 ConditionsComfort  
Time TempWeatherWind HumidityBarometerVisibility
2:20 pm
Sat, Apr 29
52 °FClear.7 mph47%30.07 "Hg10 mi
1:50 pm54 °FClear.3 mph44%30.07 "Hg10 mi
1:20 pm52 °FClear.2 mph47%30.09 "Hg10 mi
12:50 pm50 °FClear.3 mph50%30.09 "Hg10 mi
12:20 pm50 °FClear.3 mph47%30.09 "Hg10 mi
11:50 am50 °FScattered clouds.3 mph47%30.09 "HgN/A
11:20 am50 °FScattered clouds.5 mph50%30.09 "HgN/A
10:50 am48 °FScattered clouds.2 mph54%30.09 "HgN/A
10:20 am46 °FScattered clouds.3 mph62%30.09 "HgN/A
9:20 am48 °FSunny.3 mph66%30.09 "Hg10 mi
8:50 am45 °FSunny.2 mph76%30.07 "Hg10 mi
8:20 am43 °FSunny.2 mph81%30.07 "Hg10 mi
7:50 am41 °FSunny.2 mph93%30.07 "Hg10 mi
8:20 pm
Fri, Apr 28
50 °FPassing clouds.5 mph67%29.98 "HgN/A
7:50 pm50 °FPartly cloudy.5 mph71%29.98 "HgN/A
7:20 pm52 °FPartly cloudy.8 mph58%29.98 "HgN/A
6:50 pm52 °FPassing clouds.7 mph54%29.95 "HgN/A
6:20 pm52 °FPassing clouds.8 mph62%29.95 "HgN/A
5:50 pm52 °FPassing clouds.7 mph62%29.95 "HgN/A
5:20 pm50 °FPassing clouds.8 mph67%29.95 "HgN/A
4:50 pm52 °FPassing clouds.10 mph62%29.95 "HgN/A
4:20 pm50 °FPassing clouds.12 mph67%29.95 "HgN/A
3:50 pm52 °FPassing clouds.8 mph58%29.95 "HgN/A
3:20 pm52 °FPassing clouds.6 mph58%29.95 "HgN/A
Weather by CustomWeather, © 2017

See weather overviewHow to use our weather pages